HYS672 LROP-LRCL

Flight info

Callsign HYS672
Flight time 0h 59m
Altitude 32000
Route BUKEL DCT EDETA
Aircraft A320/M-SDE3FGHIRWY/LB1

Departure

Time 2026-04-30 19:35
Airport Bucharest Henri Coandă International Airport (LROP)

Arrival

Time 2026-04-30 20:34
Airport Avram Iancu Cluj International Airport (LRCL)
Time Latitude Longitude Altitude Speed Heading
2026-04-30 18:46 44.56895 26.08238 315 ft 0 kts 354°
2026-04-30 19:30 44.56942 26.08309 316 ft 8 kts 95°
2026-04-30 19:30 44.56902 26.08447 316 ft 7 kts 119°
2026-04-30 19:31 44.56947 26.08542 317 ft 8 kts
2026-04-30 19:31 44.57011 26.08535 317 ft 11 kts 354°
2026-04-30 19:31 44.57188 26.08510 316 ft 14 kts 353°
2026-04-30 19:32 44.57280 26.08496 319 ft 13 kts 354°
2026-04-30 19:32 44.57370 26.08480 321 ft 13 kts 353°
2026-04-30 19:32 44.57390 26.08478 320 ft 0 kts 356°
2026-04-30 19:32 44.57410 26.08475 321 ft 6 kts 355°
2026-04-30 19:33 44.57459 26.08469 321 ft 8 kts 354°
2026-04-30 19:33 44.57513 26.08461 324 ft 9 kts 354°
2026-04-30 19:33 44.57583 26.08449 326 ft 10 kts 352°
2026-04-30 19:33 44.57654 26.08457 325 ft 11 kts 22°
2026-04-30 19:34 44.57675 26.08556 328 ft 13 kts 83°
2026-04-30 19:34 44.57702 26.08920 320 ft 72 kts 84°
2026-04-30 19:34 44.57879 26.11335 392 ft 161 kts 86°
2026-04-30 19:35 44.57977 26.12872 1034 ft 157 kts 85°
2026-04-30 19:35 44.58062 26.14393 1734 ft 156 kts 83°
2026-04-30 19:35 44.58180 26.15925 2266 ft 164 kts 80°
2026-04-30 19:35 44.58323 26.17626 2540 ft 186 kts 80°
2026-04-30 19:36 44.58387 26.18392 2638 ft 197 kts 80°
2026-04-30 19:36 44.58389 26.18415 2641 ft 197 kts 80°
2026-04-30 19:36 44.58727 26.22624 3603 ft 236 kts 81°
2026-04-30 19:37 44.58902 26.24915 4448 ft 241 kts 81°
2026-04-30 19:37 44.59079 26.27266 5352 ft 244 kts 81°
2026-04-30 19:37 44.59256 26.29657 6210 ft 249 kts 81°
2026-04-30 19:37 44.59436 26.32104 7025 ft 255 kts 82°
2026-04-30 19:38 44.59726 26.34572 7793 ft 258 kts 69°
2026-04-30 19:38 44.60663 26.36712 8550 ft 261 kts 44°
2026-04-30 19:38 44.62197 26.38088 9318 ft 266 kts 19°
2026-04-30 19:38 44.64043 26.38375 10088 ft 273 kts 353°
2026-04-30 19:39 44.65828 26.37436 10808 ft 280 kts 326°
2026-04-30 19:39 44.67263 26.35556 11525 ft 285 kts 315°
2026-04-30 19:39 44.68705 26.33542 11891 ft 302 kts 322°
2026-04-30 19:39 44.70571 26.31985 12039 ft 323 kts 340°
2026-04-30 19:40 44.72807 26.31337 12451 ft 334 kts 354°
2026-04-30 19:40 44.75139 26.31016 13083 ft 339 kts 354°
2026-04-30 19:40 44.77500 26.30682 13752 ft 343 kts 354°
2026-04-30 19:40 44.79852 26.30058 14366 ft 347 kts 341°
2026-04-30 19:41 44.82044 26.28626 14938 ft 350 kts 327°
2026-04-30 19:41 44.83932 26.26450 15511 ft 353 kts 313°
2026-04-30 19:41 44.85407 26.23668 16082 ft 356 kts 301°
2026-04-30 19:41 44.86722 26.20689 16668 ft 359 kts 301°
2026-04-30 19:42 44.88045 26.17687 17254 ft 362 kts 301°
2026-04-30 19:42 44.89378 26.14657 17857 ft 365 kts 301°
2026-04-30 19:42 44.90707 26.11636 18454 ft 369 kts 301°
2026-04-30 19:42 44.92084 26.08509 19017 ft 372 kts 300°
2026-04-30 19:43 44.93432 26.05445 19587 ft 374 kts 300°
2026-04-30 19:43 44.94808 26.02312 20184 ft 376 kts 301°
2026-04-30 19:43 44.96189 25.99164 20764 ft 379 kts 301°
2026-04-30 19:44 44.98978 25.92785 21846 ft 385 kts 301°
2026-04-30 19:44 45.00389 25.89556 22370 ft 387 kts 301°
2026-04-30 19:44 45.01812 25.86296 22882 ft 390 kts 301°
2026-04-30 19:44 45.03240 25.83025 23383 ft 392 kts 301°
2026-04-30 19:45 45.04676 25.79726 23883 ft 395 kts 301°
2026-04-30 19:45 45.06117 25.76408 24285 ft 397 kts 301°
2026-04-30 19:45 45.07717 25.73212 24667 ft 399 kts 311°
2026-04-30 19:45 45.09674 25.70429 25063 ft 400 kts 321°
2026-04-30 19:46 45.11857 25.67965 25440 ft 401 kts 322°
2026-04-30 19:46 45.14045 25.65500 25811 ft 403 kts 321°
2026-04-30 19:46 45.16242 25.63006 26179 ft 406 kts 321°
2026-04-30 19:46 45.18447 25.60493 26539 ft 408 kts 321°
2026-04-30 19:47 45.20665 25.57963 26908 ft 410 kts 321°
2026-04-30 19:47 45.22143 25.56277 27144 ft 411 kts 321°
2026-04-30 19:47 45.25106 25.52899 27607 ft 414 kts 320°
2026-04-30 19:47 45.27361 25.50327 27953 ft 416 kts 321°
2026-04-30 19:48 45.29615 25.47756 28293 ft 416 kts 321°
2026-04-30 19:48 45.34111 25.42616 28367 ft 406 kts 321°
2026-04-30 19:48 45.36256 25.40146 28373 ft 388 kts 318°
2026-04-30 19:49 45.37910 25.37232 28372 ft 374 kts 299°
2026-04-30 19:49 45.38614 25.30170 28372 ft 369 kts 259°
2026-04-30 19:49 45.37606 25.26802 28372 ft 376 kts 239°
2026-04-30 19:50 45.33892 25.21496 28371 ft 386 kts 211°
2026-04-30 19:50 45.31353 25.20210 28374 ft 393 kts 191°
2026-04-30 19:50 45.28605 25.20192 28371 ft 399 kts 171°
2026-04-30 19:51 45.26008 25.21442 28373 ft 402 kts 151°
2026-04-30 19:51 45.23704 25.23706 28373 ft 404 kts 141°
2026-04-30 19:51 45.21792 25.26599 28369 ft 403 kts 121°
2026-04-30 19:51 45.20650 25.30191 28372 ft 399 kts 101°
2026-04-30 19:52 45.20405 25.34063 28373 ft 392 kts 81°
2026-04-30 19:52 45.21069 25.37757 28372 ft 384 kts 60°
2026-04-30 19:52 45.23920 25.44114 28374 ft 381 kts 50°
2026-04-30 19:53 45.27329 25.49740 28376 ft 372 kts 31°
2026-04-30 19:53 45.29562 25.51530 28396 ft 366 kts 18°
2026-04-30 19:53 45.31992 25.52470 28372 ft 360 kts
2026-04-30 19:54 45.34446 25.52461 28374 ft 356 kts 349°
2026-04-30 19:54 45.36818 25.51508 28374 ft 354 kts 334°
2026-04-30 19:54 45.38912 25.49695 28377 ft 354 kts 320°
2026-04-30 19:54 45.40606 25.47165 28377 ft 355 kts 306°
2026-04-30 19:55 45.41796 25.44084 28376 ft 358 kts 292°
2026-04-30 19:55 45.42382 25.40634 28378 ft 362 kts 278°
2026-04-30 19:55 45.43409 25.33684 28377 ft 357 kts 297°
2026-04-30 19:56 45.44720 25.30708 28377 ft 355 kts 311°
2026-04-30 19:56 45.46511 25.28307 28381 ft 354 kts 321°
2026-04-30 19:56 45.50344 25.23921 28377 ft 352 kts 322°
2026-04-30 19:57 45.54160 25.19543 28376 ft 352 kts 322°
2026-04-30 19:57 45.57939 25.15176 28376 ft 352 kts 322°
2026-04-30 19:58 45.61739 25.10768 28374 ft 353 kts 322°
2026-04-30 19:58 45.65562 25.06337 28374 ft 354 kts 322°
2026-04-30 19:59 45.69378 25.01894 28364 ft 353 kts 322°
2026-04-30 20:00 45.75094 24.95220 28373 ft 353 kts 322°
2026-04-30 20:00 45.78904 24.90776 28369 ft 353 kts 323°
2026-04-30 20:01 45.84154 24.83388 28363 ft 358 kts 306°
2026-04-30 20:01 45.86237 24.76870 28343 ft 364 kts 289°
2026-04-30 20:02 45.86886 24.69588 28361 ft 371 kts 277°
2026-04-30 20:02 45.87013 24.65938 28361 ft 371 kts 277°
2026-04-30 20:03 45.87392 24.54831 28361 ft 371 kts 277°
2026-04-30 20:03 45.87636 24.47434 28356 ft 371 kts 277°
2026-04-30 20:04 45.87971 24.40049 28351 ft 367 kts 285°
2026-04-30 20:04 45.88679 24.36568 28343 ft 361 kts 297°
2026-04-30 20:05 45.91476 24.30756 28336 ft 352 kts 320°
2026-04-30 20:05 45.93407 24.28636 28340 ft 348 kts 332°
2026-04-30 20:05 45.97887 24.26326 28349 ft 345 kts 352°
2026-04-30 20:06 46.02642 24.25345 28350 ft 345 kts 352°
2026-04-30 20:06 46.07396 24.24333 28350 ft 344 kts 352°
2026-04-30 20:07 46.12132 24.23326 28354 ft 344 kts 352°
2026-04-30 20:08 46.19245 24.21823 28357 ft 344 kts 352°
2026-04-30 20:08 46.23989 24.20818 28353 ft 344 kts 352°
2026-04-30 20:09 46.28725 24.19813 28351 ft 344 kts 352°
2026-04-30 20:09 46.35841 24.18304 28353 ft 344 kts 352°
2026-04-30 20:10 46.42918 24.16800 28352 ft 344 kts 352°
2026-04-30 20:11 46.49258 24.15442 28348 ft 343 kts 353°
2026-04-30 20:11 46.53981 24.14432 28347 ft 342 kts 353°
2026-04-30 20:12 46.61030 24.12909 28326 ft 343 kts 352°
2026-04-30 20:12 46.63347 24.12076 28340 ft 345 kts 341°
2026-04-30 20:13 46.65501 24.10489 28298 ft 350 kts 330°
2026-04-30 20:13 46.67610 24.08473 27381 ft 374 kts 330°
2026-04-30 20:13 46.69797 24.06350 26335 ft 380 kts 329°
2026-04-30 20:13 46.71985 24.04199 25319 ft 378 kts 329°
2026-04-30 20:14 46.74153 24.02039 24345 ft 376 kts 327°
2026-04-30 20:14 46.76070 23.99399 23287 ft 382 kts 313°
2026-04-30 20:14 46.77492 23.96108 22165 ft 388 kts 299°
2026-04-30 20:14 46.78330 23.92334 21063 ft 395 kts 285°
2026-04-30 20:15 46.78826 23.88401 19983 ft 394 kts 284°
2026-04-30 20:15 46.79304 23.84519 18941 ft 392 kts 284°
2026-04-30 20:15 46.79782 23.80621 17926 ft 387 kts 284°
2026-04-30 20:15 46.80402 23.76859 16938 ft 376 kts 291°
2026-04-30 20:16 46.81173 23.73240 15933 ft 370 kts 291°
2026-04-30 20:16 46.81934 23.69680 14942 ft 365 kts 291°
2026-04-30 20:16 46.82686 23.66171 13962 ft 360 kts 291°
2026-04-30 20:16 46.83427 23.62713 12915 ft 354 kts 290°
2026-04-30 20:17 46.84155 23.59320 11956 ft 347 kts 290°
2026-04-30 20:17 46.84815 23.55999 11442 ft 331 kts 284°
2026-04-30 20:17 46.85071 23.52693 11188 ft 328 kts 273°
2026-04-30 20:17 46.84868 23.49377 10934 ft 330 kts 261°
2026-04-30 20:18 46.84238 23.46166 10582 ft 321 kts 253°
2026-04-30 20:18 46.83544 23.43193 10389 ft 300 kts 253°
2026-04-30 20:18 46.82888 23.40353 10103 ft 291 kts 253°
2026-04-30 20:18 46.82248 23.37558 9960 ft 289 kts 253°
2026-04-30 20:19 46.81615 23.34783 9409 ft 298 kts 253°
2026-04-30 20:19 46.80962 23.31918 8950 ft 299 kts 253°
2026-04-30 20:19 46.80303 23.29023 8484 ft 299 kts 253°
2026-04-30 20:19 46.79676 23.26228 8396 ft 287 kts 253°
2026-04-30 20:20 46.79062 23.23506 8324 ft 276 kts 253°
2026-04-30 20:20 46.78467 23.20881 8332 ft 272 kts 253°
2026-04-30 20:20 46.77872 23.18257 8330 ft 272 kts 253°
2026-04-30 20:20 46.77277 23.15636 8340 ft 272 kts 253°
2026-04-30 20:21 46.76683 23.13024 8339 ft 272 kts 253°
2026-04-30 20:21 46.76087 23.10404 8340 ft 272 kts 253°
2026-04-30 20:21 46.75492 23.07785 8341 ft 272 kts 253°
2026-04-30 20:21 46.74897 23.05167 8340 ft 272 kts 253°
2026-04-30 20:22 46.74303 23.02554 8337 ft 272 kts 253°
2026-04-30 20:22 46.73708 22.99943 8337 ft 271 kts 253°
2026-04-30 20:22 46.73113 22.97330 8339 ft 269 kts 253°
2026-04-30 20:22 46.72420 22.94877 8338 ft 257 kts 238°
2026-04-30 20:23 46.71238 22.93033 8336 ft 244 kts 215°
2026-04-30 20:23 46.70948 22.92757 8339 ft 241 kts 210°
2026-04-30 20:23 46.69943 22.92116 8338 ft 232 kts 195°
2026-04-30 20:23 46.68379 22.91891 8336 ft 223 kts 172°
2026-04-30 20:24 46.66903 22.92485 8342 ft 220 kts 151°
2026-04-30 20:24 46.65676 22.93771 8344 ft 217 kts 130°
2026-04-30 20:24 46.64841 22.95571 8341 ft 214 kts 109°
2026-04-30 20:24 46.64483 22.97637 8342 ft 210 kts 90°
2026-04-30 20:25 46.64997 23.01738 8342 ft 206 kts 72°
2026-04-30 20:25 46.65379 23.03761 8340 ft 206 kts 72°
2026-04-30 20:26 46.66137 23.07816 8346 ft 213 kts 72°
2026-04-30 20:26 46.66984 23.12334 8099 ft 239 kts 72°
2026-04-30 20:26 46.67413 23.14660 7871 ft 236 kts 73°
2026-04-30 20:27 46.68279 23.19354 7145 ft 239 kts 73°
2026-04-30 20:27 46.69130 23.23988 6661 ft 234 kts 73°
2026-04-30 20:28 46.69963 23.28547 6218 ft 232 kts 73°
2026-04-30 20:28 46.70794 23.33078 5784 ft 231 kts 74°
2026-04-30 20:29 46.71692 23.37568 5238 ft 231 kts 72°
2026-04-30 20:30 46.73225 23.44167 4298 ft 227 kts 72°
2026-04-30 20:30 46.74705 23.50573 3404 ft 204 kts 72°
2026-04-30 20:31 46.75894 23.55790 2680 ft 158 kts 73°
2026-04-30 20:32 46.76864 23.60071 2092 ft 144 kts 73°
2026-04-30 20:32 46.77483 23.62806 1740 ft 142 kts 72°
2026-04-30 20:33 46.77790 23.64179 1547 ft 139 kts 72°
2026-04-30 20:33 46.78389 23.66830 1149 ft 136 kts 71°
2026-04-30 20:33 46.78672 23.68092 1048 ft 123 kts 69°
2026-04-30 20:34 46.78872 23.69179 1043 ft 21 kts 145°
2026-04-30 20:34 46.78654 23.69289 1043 ft 18 kts 160°
2026-04-30 20:35 46.78562 23.69332 1043 ft 8 kts 178°
2026-04-30 20:35 46.78547 23.69288 1043 ft 6 kts 260°
2026-04-30 20:35 46.78540 23.69249 1043 ft 0 kts 252°